This demonstration page uses our WeatherBlox Daily Observations layout. Learn more.

Left ArrowRight Arrow

44.89941, -97.11507

Hourly Observations for March 3, 2017

Temp ( °F °C ) Dew Point ( °F °C ) Humidity (%) Winds ( mph kmh ) Pressure ( in mb ) Visibility ( mi km ) Precip ( " mm )
12:53 am 00:53 Clear 9 -12.8 6 -14.4 88 88 S 3 6 30.52 1034 10 16 0.00 0.00
1:53 am 01:53 Clear 11 -11.7 8 -13.3 88 88 S 5 7 30.51 1033 10 16 0.00 0.00
2:53 am 02:53 Clear 11 -11.7 7 -13.9 84 84 SSE 3 6 30.50 1033 10 16 0.00 0.00
3:53 am 03:53 Clear 11 -11.7 8 -13.3 88 88 SSE 6 9 30.48 1032 10 16 0.00 0.00
4:53 am 04:53 Clear 12 -11.1 9 -12.8 87 87 SSE 6 9 30.47 1032 10 16 0.00 0.00
5:53 am 05:53 Clear 14 -10 11 -11.7 88 88 S 8 13 30.46 1032 10 16 0.00 0.00
6:53 am 06:53 Cloudy 16 -8.9 12 -11.1 84 84 SSE 8 13 30.45 1031 10 16 0.00 0.00
7:53 am 07:53 Cloudy 18 -7.8 14 -10 84 84 SSE 14 22 30.44 1031 10 16 0.00 0.00
8:53 am 08:53 Cloudy 20 -6.7 17 -8.3 89 89 S 15 24 30.43 1031 8 13 0.00 0.00
9:13 am 09:13 Cloudy with Light Snow 21 -6.1 18 -7.8 88 88 S 14 22 30.45 1031 3 4 0.00 0.03
9:26 am 09:26 Cloudy with Light Snow 22 -5.6 19 -7.2 89 89 S 14 22 30.45 1031 2 3 0.00 0.03
9:44 am 09:44 Cloudy with Light Snow 22 -5.6 19 -7.2 89 89 SSE 12 19 30.45 1031 2 3 0.00 0.03
9:53 am 09:53 Cloudy with Light Snow 23 -5 19 -7.2 85 85 SSE 14 22 30.40 1030 2 3 0.00 0.03
10:04 am 10:04 Cloudy with Light Snow 23 -5 20 -6.7 88 88 SSE 16 26 30.42 1030 2 3 0.00 0.03
10:19 am 10:19 Cloudy with Light Snow 24 -4.4 21 -6.1 88 88 SSE 16 26 30.42 1030 2 3 0.00 0.03
10:31 am 10:31 Windy with Snow Likely 25 -3.9 22 -5.6 88 88 SSE 20 31 30.42 1030 4 6 0.00 0.03
10:35 am 10:35 Cloudy with Light Snow 24 -4.4 21 -6.1 88 88 SSE 18 30 30.42 1030 5 8 0.00 0.03
10:49 am 10:49 Cloudy 25 -4 21 -6 86 86 SSE 16 26 30.39 1029 10 16 0.00 0.03
10:53 am 10:53 Cloudy 25 -3.9 22 -5.6 88 88 SSE 17 28 30.37 1028 10 16 0.00 0.03
11:22 am 11:22 Cloudy 27 -2.8 23 -5 85 85 SSE 22 35 30.36 1028 10 16 0.00 0.00
11:53 am 11:53 Cloudy 29 -1.7 21 -6.1 72 72 SSE 18 30 30.33 1027 10 16 0.00 0.00
12:53 pm 12:53 Mostly Cloudy 31 -0.6 20 -6.7 64 64 SSE 23 37 30.29 1026 10 16 0.00 0.00
1:53 pm 13:53 Mostly Sunny 32 0 20 -6.7 61 61 SSE 24 39 30.28 1025 10 16 0.00 0.00
2:53 pm 14:53 Mostly Cloudy 33 0.6 20 -6.7 58 58 S 21 33 30.27 1025 10 16 0.00 0.00
3:53 pm 15:53 Mostly Sunny 33 0.6 21 -6.1 61 61 S 18 30 30.25 1024 10 16 0.00 0.00
4:53 pm 16:53 Mostly Cloudy 32 0 22 -5.6 66 66 SSE 17 28 30.25 1024 10 16 0.00 0.00
5:53 pm 17:53 Mostly Cloudy 31 -0.6 22 -5.6 69 69 SSE 16 26 30.25 1024 10 16 0.00 0.00
6:53 pm 18:53 Clear 30 -1.1 23 -5 75 75 SE 10 17 30.24 1024 10 16 0.00 0.00
7:53 pm 19:53 Mostly Clear 29 -1.7 23 -5 78 78 SE 8 13 30.24 1024 10 16 0.00 0.00
8:53 pm 20:53 Clear 28 -2.2 22 -5.6 78 78 SE 10 17 30.24 1024 10 16 0.00 0.00
9:53 pm 21:53 Clear 27 -2.8 22 -5.6 81 81 SE 9 15 30.23 1024 10 16 0.00 0.00
10:53 pm 22:53 Clear 26 -3.3 22 -5.6 84 84 SE 10 17 30.23 1024 10 16 0.00 0.00
11:53 pm 23:53 Clear 26 -3.3 21 -6.1 81 81 SE 9 15 30.21 1023 10 16 0.00 0.00

Powered by AerisWeather